Time,TemperatureF,DewpointF,PressureIn,WindDirection,WindDirectionDegrees,WindSpeedMPH,WindSpeedGustMPH,Humidity,HourlyPrecipIn,Conditions,Clouds,dailyrainin,SoftwareType,DateUTC
2013-03-05 00:04:00,34.3,29.7,29.93,SE,141,8.0,12.0,83,0.00,,,0.00,meteohub,2013-03-05 06:04:00,
2013-03-05 00:09:00,34.3,29.7,29.92,SE,124,8.0,12.0,83,0.00,,,0.00,meteohub,2013-03-05 06:09:00,
2013-03-05 00:14:00,34.3,29.7,29.92,SE,125,5.0,11.0,83,0.00,,,0.00,meteohub,2013-03-05 06:14:00,
2013-03-05 00:19:00,34.3,29.7,29.92,SE,127,8.0,11.0,83,0.00,,,0.00,meteohub,2013-03-05 06:19:00,
2013-03-05 00:24:00,34.3,30.0,29.92,SSE,155,8.0,11.0,84,0.00,,,0.00,meteohub,2013-03-05 06:24:00,
2013-03-05 00:29:00,34.3,30.0,29.92,SE,139,6.0,11.0,84,0.00,,,0.00,meteohub,2013-03-05 06:29:00,
2013-03-05 00:34:00,34.2,29.8,29.92,SE,142,6.0,11.0,84,0.00,,,0.00,meteohub,2013-03-05 06:34:00,
2013-03-05 00:39:00,34.3,30.0,29.92,SE,136,8.0,11.0,84,0.00,,,0.00,meteohub,2013-03-05 06:39:00,
2013-03-05 00:44:00,34.2,29.8,29.92,SE,143,6.0,11.0,84,0.00,,,0.00,meteohub,2013-03-05 06:44:00,
2013-03-05 00:49:00,34.3,30.0,29.92,SE,129,6.0,10.0,84,0.00,,,0.00,meteohub,2013-03-05 06:49:00,
2013-03-05 00:54:00,34.3,30.0,29.92,ESE,122,5.0,9.0,84,0.00,,,0.00,meteohub,2013-03-05 06:54:00,
2013-03-05 00:59:00,34.3,30.0,29.92,SE,126,8.0,10.0,84,0.00,,,0.00,meteohub,2013-03-05 06:59:00,
2013-03-05 01:05:00,34.3,29.7,29.91,SE,142,8.0,10.0,83,0.00,,,0.00,meteohub,2013-03-05 07:05:00,
2013-03-05 01:10:00,34.3,29.7,29.91,SE,139,9.0,10.0,83,0.00,,,0.00,meteohub,2013-03-05 07:10:00,
2013-03-05 01:15:00,34.3,29.7,29.91,SE,130,9.0,10.0,83,0.00,,,0.00,meteohub,2013-03-05 07:15:00,
2013-03-05 01:20:00,34.3,29.7,29.91,SE,138,5.0,10.0,83,0.00,,,0.00,meteohub,2013-03-05 07:20:00,
2013-03-05 01:25:00,34.3,29.7,29.91,SE,134,8.0,10.0,83,0.00,,,0.00,meteohub,2013-03-05 07:25:00,
2013-03-05 01:30:00,34.3,29.7,29.91,SSE,155,6.0,10.0,83,0.00,,,0.00,meteohub,2013-03-05 07:30:00,
2013-03-05 01:35:00,34.3,30.0,29.91,ESE,110,9.0,10.0,84,0.00,,,0.00,meteohub,2013-03-05 07:35:00,
2013-03-05 01:40:00,34.3,30.0,29.91,SE,135,9.0,10.0,84,0.00,,,0.00,meteohub,2013-03-05 07:40:00,
2013-03-05 01:45:00,34.3,30.0,29.91,East,92,8.0,10.0,84,0.00,,,0.00,meteohub,2013-03-05 07:45:00,
2013-03-05 01:50:00,34.3,30.0,29.91,SE,137,6.0,10.0,84,0.00,,,0.00,meteohub,2013-03-05 07:50:00,
2013-03-05 01:55:00,34.3,30.0,29.90,SE,136,7.0,10.0,84,0.00,,,0.00,meteohub,2013-03-05 07:55:00,
2013-03-05 02:00:00,34.3,30.0,29.90,SE,139,6.0,12.0,84,0.00,,,0.00,meteohub,2013-03-05 08:00:00,
2013-03-05 02:05:00,34.3,30.0,29.90,SE,137,8.0,12.0,84,0.00,,,0.00,meteohub,2013-03-05 08:05:00,
2013-03-05 02:10:00,34.3,30.0,29.89,SE,139,8.0,10.0,84,0.00,,,0.00,meteohub,2013-03-05 08:10:00,
2013-03-05 02:15:00,34.3,30.4,29.89,SE,134,8.0,10.0,85,0.00,,,0.00,meteohub,2013-03-05 08:15:00,
2013-03-05 02:20:00,34.3,30.4,29.89,SE,136,8.0,11.0,85,0.00,,,0.00,meteohub,2013-03-05 08:20:00,
2013-03-05 02:25:00,34.3,30.4,29.89,SE,144,8.0,11.0,85,0.00,,,0.00,meteohub,2013-03-05 08:25:00,
2013-03-05 02:30:00,34.3,30.4,29.88,ESE,122,6.0,11.0,85,0.00,,,0.00,meteohub,2013-03-05 08:30:00,
2013-03-05 02:35:00,34.3,30.4,29.88,SE,131,8.0,10.0,85,0.00,,,0.00,meteohub,2013-03-05 08:35:00,
2013-03-05 02:40:00,34.3,30.4,29.88,SE,140,7.0,10.0,85,0.00,,,0.00,meteohub,2013-03-05 08:40:00,
2013-03-05 02:46:00,34.3,30.4,29.88,SE,136,6.0,10.0,85,0.00,,,0.00,meteohub,2013-03-05 08:46:00,
2013-03-05 02:51:00,34.3,30.4,29.88,SE,135,9.0,10.0,85,0.00,,,0.00,meteohub,2013-03-05 08:51:00,
2013-03-05 02:56:00,34.3,30.4,29.88,SE,144,7.0,10.0,85,0.00,,,0.00,meteohub,2013-03-05 08:56:00,
2013-03-05 03:01:00,34.3,30.4,29.88,SE,141,6.0,11.0,85,0.00,,,0.00,meteohub,2013-03-05 09:01:00,
2013-03-05 03:06:00,34.5,30.6,29.88,SE,137,6.0,11.0,85,0.00,,,0.00,meteohub,2013-03-05 09:06:00,
2013-03-05 03:11:00,34.3,30.4,29.88,SE,141,8.0,11.0,85,0.00,,,0.00,meteohub,2013-03-05 09:11:00,
2013-03-05 03:16:00,34.3,30.4,29.88,SE,134,6.0,11.0,85,0.00,,,0.00,meteohub,2013-03-05 09:16:00,
2013-03-05 03:21:00,34.3,30.6,29.88,SSE,149,8.0,11.0,86,0.00,,,0.00,meteohub,2013-03-05 09:21:00,
2013-03-05 03:26:00,34.2,30.4,29.88,SE,135,8.0,11.0,86,0.00,,,0.00,meteohub,2013-03-05 09:26:00,
2013-03-05 03:31:00,34.2,30.7,29.88,SE,128,6.0,11.0,87,0.00,,,0.00,meteohub,2013-03-05 09:31:00,
2013-03-05 03:36:00,34.0,30.6,29.88,ESE,120,9.0,10.0,87,0.00,,,0.00,meteohub,2013-03-05 09:36:00,
2013-03-05 03:41:00,34.0,30.7,29.88,SE,142,6.0,9.0,88,0.00,,,0.00,meteohub,2013-03-05 09:41:00,
2013-03-05 03:46:00,34.0,30.7,29.88,SE,125,0.0,9.0,88,0.00,,,0.00,meteohub,2013-03-05 09:46:00,
2013-03-05 03:51:00,33.8,30.6,29.88,ESE,121,0.0,10.0,88,0.00,,,0.00,meteohub,2013-03-05 09:51:00,
2013-03-05 03:56:00,33.6,30.7,29.88,SE,137,5.0,10.0,89,0.00,,,0.00,meteohub,2013-03-05 09:56:00,
2013-03-05 04:01:00,33.6,30.7,29.88,SE,126,0.0,9.0,89,0.00,,,0.00,meteohub,2013-03-05 10:01:00,
2013-03-05 04:06:00,33.4,30.7,29.88,ESE,118,6.0,8.0,90,0.00,,,0.00,meteohub,2013-03-05 10:06:00,
2013-03-05 04:12:00,33.4,30.7,29.87,SE,136,7.0,8.0,90,0.00,,,0.00,meteohub,2013-03-05 10:12:00,
2013-03-05 04:17:00,33.3,30.6,29.87,ESE,111,5.0,8.0,90,0.00,,,0.00,meteohub,2013-03-05 10:17:00,
2013-03-05 04:22:00,33.3,30.9,29.88,ESE,111,0.0,8.0,91,0.00,,,0.00,meteohub,2013-03-05 10:22:00,
2013-03-05 04:27:00,33.1,30.7,29.87,ESE,111,0.0,8.0,91,0.00,,,0.00,meteohub,2013-03-05 10:27:00,
2013-03-05 04:32:00,32.9,30.9,29.87,ESE,118,6.0,6.0,92,0.00,,,0.00,meteohub,2013-03-05 10:32:00,
2013-03-05 04:37:00,32.7,30.7,29.87,ESE,118,0.0,8.0,92,0.00,,,0.00,meteohub,2013-03-05 10:37:00,
2013-03-05 04:42:00,32.7,30.7,29.88,ESE,117,0.0,8.0,92,0.00,,,0.00,meteohub,2013-03-05 10:42:00,
2013-03-05 04:47:00,32.7,30.9,29.87,ESE,118,0.0,8.0,93,0.00,,,0.00,meteohub,2013-03-05 10:47:00,
2013-03-05 04:52:00,32.5,30.7,29.88,ESE,118,0.0,8.0,93,0.00,,,0.00,meteohub,2013-03-05 10:52:00,
2013-03-05 04:57:00,32.5,30.7,29.87,ESE,118,0.0,6.0,93,0.00,,,0.00,meteohub,2013-03-05 10:57:00,
2013-03-05 05:02:00,32.5,30.7,29.87,ESE,114,5.0,6.0,93,0.00,,,0.00,meteohub,2013-03-05 11:02:00,
2013-03-05 05:07:00,32.5,30.7,29.87,ESE,116,5.0,6.0,93,0.00,,,0.00,meteohub,2013-03-05 11:07:00,
2013-03-05 05:12:00,32.5,30.9,29.87,ESE,119,0.0,6.0,94,0.00,,,0.00,meteohub,2013-03-05 11:12:00,
2013-03-05 05:17:00,32.5,30.9,29.87,ESE,111,0.0,6.0,94,0.00,,,0.00,meteohub,2013-03-05 11:17:00,
2013-03-05 05:22:00,32.5,30.9,29.87,ESE,111,0.0,6.0,94,0.00,,,0.00,meteohub,2013-03-05 11:22:00,
2013-03-05 05:27:00,32.5,30.9,29.87,ESE,113,0.0,0.0,94,0.00,,,0.00,meteohub,2013-03-05 11:27:00,
2013-03-05 05:32:00,32.5,30.9,29.87,ESE,109,0.0,0.0,94,0.00,,,0.00,meteohub,2013-03-05 11:32:00,
2013-03-05 05:37:00,32.5,30.9,29.86,ESE,117,0.0,0.0,94,0.00,,,0.00,meteohub,2013-03-05 11:37:00,
2013-03-05 05:42:00,32.5,30.9,29.86,ESE,114,0.0,0.0,94,0.00,,,0.00,meteohub,2013-03-05 11:42:00,
2013-03-05 05:47:00,32.5,30.9,29.87,ESE,111,0.0,0.0,94,0.00,,,0.00,meteohub,2013-03-05 11:47:00,
2013-03-05 05:52:00,32.5,30.9,29.87,ESE,107,0.0,0.0,94,0.00,,,0.00,meteohub,2013-03-05 11:52:00,
2013-03-05 05:57:00,32.5,30.9,29.87,ESE,107,0.0,0.0,94,0.00,,,0.00,meteohub,2013-03-05 11:57:00,
2013-03-05 06:02:00,32.5,30.9,29.87,ESE,107,0.0,0.0,94,0.00,,,0.00,meteohub,2013-03-05 12:02:00,
2013-03-05 06:07:00,32.5,30.9,29.87,ESE,107,0.0,0.0,94,0.00,,,0.00,meteohub,2013-03-05 12:07:00,
2013-03-05 06:12:00,32.5,30.9,29.87,ESE,107,0.0,0.0,94,0.00,,,0.00,meteohub,2013-03-05 12:12:00,
2013-03-05 06:17:00,32.5,30.9,29.87,ESE,107,0.0,0.0,94,0.00,,,0.00,meteohub,2013-03-05 12:17:00,
2013-03-05 06:22:00,32.5,30.9,29.87,ESE,107,0.0,0.0,94,0.00,,,0.00,meteohub,2013-03-05 12:22:00,
2013-03-05 06:27:00,32.5,30.9,29.87,ESE,115,0.0,0.0,94,0.00,,,0.00,meteohub,2013-03-05 12:27:00,
2013-03-05 06:32:00,32.5,30.9,29.87,ESE,115,0.0,0.0,94,0.00,,,0.00,meteohub,2013-03-05 12:32:00,
2013-03-05 06:37:00,32.5,30.9,29.87,ESE,115,0.0,0.0,94,0.00,,,0.00,meteohub,2013-03-05 12:37:00,
2013-03-05 06:42:00,32.5,30.9,29.87,ESE,115,0.0,0.0,94,0.00,,,0.00,meteohub,2013-03-05 12:42:00,
2013-03-05 06:47:00,32.5,30.9,29.88,ESE,115,0.0,0.0,94,0.00,,,0.00,meteohub,2013-03-05 12:47:00,
2013-03-05 06:52:00,32.5,30.9,29.88,ESE,115,0.0,0.0,94,0.00,,,0.00,meteohub,2013-03-05 12:52:00,
2013-03-05 06:57:00,32.5,30.9,29.87,ESE,115,0.0,0.0,94,0.00,,,0.00,meteohub,2013-03-05 12:57:00,
2013-03-05 07:02:00,32.5,30.9,29.87,ESE,115,0.0,0.0,94,0.00,,,0.00,meteohub,2013-03-05 13:02:00,
2013-03-05 07:07:00,32.5,30.9,29.87,ESE,115,0.0,0.0,94,0.00,,,0.00,meteohub,2013-03-05 13:07:00,
2013-03-05 07:12:00,32.5,30.9,29.87,ESE,115,0.0,0.0,94,0.00,,,0.00,meteohub,2013-03-05 13:12:00,
2013-03-05 07:17:00,32.5,30.9,29.87,ESE,115,0.0,0.0,94,0.00,,,0.00,meteohub,2013-03-05 13:17:00,
2013-03-05 07:22:00,32.5,31.3,29.87,ESE,115,0.0,0.0,95,0.00,,,0.00,meteohub,2013-03-05 13:22:00,
2013-03-05 07:27:00,32.7,31.5,29.87,ESE,115,0.0,0.0,95,0.00,,,0.00,meteohub,2013-03-05 13:27:00,
2013-03-05 07:32:00,32.7,31.5,29.87,ESE,115,0.0,0.0,95,0.00,,,0.00,meteohub,2013-03-05 13:32:00,
2013-03-05 07:37:00,32.7,31.5,29.87,ESE,115,0.0,0.0,95,0.00,,,0.00,meteohub,2013-03-05 13:37:00,
2013-03-05 07:42:00,32.7,31.5,29.87,ESE,115,0.0,0.0,95,0.00,,,0.00,meteohub,2013-03-05 13:42:00,
2013-03-05 07:47:00,32.7,31.5,29.88,ESE,113,0.0,0.0,95,0.00,,,0.00,meteohub,2013-03-05 13:47:00,
2013-03-05 07:52:00,32.7,31.5,29.87,ESE,113,0.0,0.0,95,0.00,,,0.00,meteohub,2013-03-05 13:52:00,
2013-03-05 07:57:00,32.7,31.5,29.87,ESE,113,0.0,0.0,95,0.00,,,0.00,meteohub,2013-03-05 13:57:00,
2013-03-05 08:02:00,32.7,31.5,29.87,ESE,113,0.0,0.0,95,0.00,,,0.00,meteohub,2013-03-05 14:02:00,
2013-03-05 08:07:00,32.7,31.5,29.87,ESE,113,0.0,0.0,95,0.00,,,0.00,meteohub,2013-03-05 14:07:00,
2013-03-05 08:12:00,32.7,31.5,29.88,ESE,113,0.0,0.0,95,0.00,,,0.00,meteohub,2013-03-05 14:12:00,
2013-03-05 08:17:00,32.7,31.5,29.88,ESE,113,0.0,0.0,95,0.00,,,0.00,meteohub,2013-03-05 14:17:00,
2013-03-05 08:22:00,32.7,31.5,29.88,ESE,113,0.0,0.0,95,0.00,,,0.00,meteohub,2013-03-05 14:22:00,
2013-03-05 08:27:00,32.7,31.5,29.87,ESE,113,0.0,0.0,95,0.00,,,0.00,meteohub,2013-03-05 14:27:00,
2013-03-05 08:32:00,32.9,31.6,29.87,ENE,57,0.0,0.0,95,0.00,,,0.00,meteohub,2013-03-05 14:32:00,
2013-03-05 08:37:00,32.7,31.5,29.86,NE,40,0.0,0.0,95,0.00,,,0.00,meteohub,2013-03-05 14:37:00,
2013-03-05 08:42:00,32.9,31.6,29.86,NE,40,0.0,0.0,95,0.00,,,0.00,meteohub,2013-03-05 14:42:00,
2013-03-05 08:47:00,32.9,31.6,29.86,NE,40,0.0,0.0,95,0.00,,,0.00,meteohub,2013-03-05 14:47:00,
2013-03-05 08:52:00,32.9,31.6,29.86,North,359,0.0,0.0,95,0.00,,,0.00,meteohub,2013-03-05 14:52:00,
2013-03-05 08:57:00,32.9,31.6,29.86,NE,35,0.0,0.0,95,0.00,,,0.00,meteohub,2013-03-05 14:57:00,
2013-03-05 09:02:00,33.1,31.8,29.86,North,1,0.0,0.0,95,0.00,,,0.00,meteohub,2013-03-05 15:02:00,
2013-03-05 09:07:00,33.1,31.8,29.86,NE,35,0.0,0.0,95,0.00,,,0.00,meteohub,2013-03-05 15:07:00,
2013-03-05 09:12:00,33.1,31.8,29.86,North,4,0.0,0.0,95,0.00,,,0.00,meteohub,2013-03-05 15:12:00,
2013-03-05 09:17:00,33.1,31.8,29.86,North,359,0.0,0.0,95,0.00,,,0.00,meteohub,2013-03-05 15:17:00,
2013-03-05 09:22:00,33.3,32.0,29.85,North,359,0.0,0.0,95,0.00,,,0.00,meteohub,2013-03-05 15:22:00,
2013-03-05 09:27:00,33.3,32.0,29.86,North,359,0.0,0.0,95,0.00,,,0.00,meteohub,2013-03-05 15:27:00,
2013-03-05 09:32:00,33.3,32.0,29.86,North,359,0.0,0.0,95,0.00,,,0.00,meteohub,2013-03-05 15:32:00,
2013-03-05 09:37:00,33.1,31.8,29.85,North,354,0.0,0.0,95,0.00,,,0.00,meteohub,2013-03-05 15:37:00,
2013-03-05 09:42:00,33.1,31.8,29.85,North,354,0.0,0.0,95,0.00,,,0.00,meteohub,2013-03-05 15:42:00,
2013-03-05 09:47:00,33.1,31.8,29.85,NNE,16,0.0,0.0,95,0.00,,,0.00,meteohub,2013-03-05 15:47:00,
2013-03-05 09:52:00,33.1,31.8,29.85,North,350,6.0,0.0,95,0.00,,,0.00,meteohub,2013-03-05 15:52:00,
2013-03-05 09:57:00,33.1,31.8,29.85,North,3,0.0,6.0,95,0.00,,,0.00,meteohub,2013-03-05 15:57:00,
2013-03-05 10:02:00,33.1,31.8,29.85,North,357,0.0,6.0,95,0.00,,,0.00,meteohub,2013-03-05 16:02:00,
2013-03-05 10:07:00,32.9,31.6,29.85,North,357,0.0,7.0,95,0.00,,,0.00,meteohub,2013-03-05 16:07:00,
2013-03-05 10:12:00,33.1,31.8,29.85,NE,40,0.0,7.0,95,0.00,,,0.00,meteohub,2013-03-05 16:12:00,
2013-03-05 10:17:00,33.1,31.8,29.85,NNW,342,5.0,7.0,95,0.00,,,0.00,meteohub,2013-03-05 16:17:00,
2013-03-05 10:22:00,33.1,31.8,29.85,NW,321,0.0,6.0,95,0.00,,,0.00,meteohub,2013-03-05 16:22:00,
2013-03-05 10:27:00,33.1,31.8,29.85,North,355,0.0,6.0,95,0.00,,,0.00,meteohub,2013-03-05 16:27:00,
2013-03-05 10:32:00,33.1,31.8,29.85,NNW,344,0.0,9.0,95,0.00,,,0.00,meteohub,2013-03-05 16:32:00,
2013-03-05 10:37:00,33.1,31.8,29.85,East,93,0.0,9.0,95,0.00,,,0.00,meteohub,2013-03-05 16:37:00,
2013-03-05 10:43:00,33.1,31.8,29.84,East,93,0.0,9.0,95,0.00,,,0.00,meteohub,2013-03-05 16:43:00,
2013-03-05 10:48:00,33.1,31.8,29.85,East,99,0.0,9.0,95,0.00,,,0.00,meteohub,2013-03-05 16:48:00,
2013-03-05 10:53:00,33.1,31.8,29.85,East,99,0.0,9.0,95,0.00,,,0.00,meteohub,2013-03-05 16:53:00,
2013-03-05 10:58:00,33.1,31.8,29.85,NNW,347,0.0,7.0,95,0.00,,,0.00,meteohub,2013-03-05 16:58:00,
2013-03-05 11:03:00,33.1,31.8,29.85,SW,225,0.0,0.0,95,0.00,,,0.00,meteohub,2013-03-05 17:03:00,
2013-03-05 11:08:00,33.1,31.8,29.85,North,357,0.0,0.0,95,0.00,,,0.00,meteohub,2013-03-05 17:08:00,
2013-03-05 11:13:00,33.1,31.8,29.85,NW,315,0.0,0.0,95,0.00,,,0.00,meteohub,2013-03-05 17:13:00,
2013-03-05 11:18:00,33.1,31.8,29.85,NW,315,0.0,8.0,95,0.00,,,0.00,meteohub,2013-03-05 17:18:00,
2013-03-05 11:23:00,33.1,31.8,29.85,NW,321,0.0,8.0,95,0.00,,,0.00,meteohub,2013-03-05 17:23:00,
2013-03-05 11:28:00,32.9,31.6,29.85,North,358,0.0,8.0,95,0.00,,,0.00,meteohub,2013-03-05 17:28:00,
2013-03-05 11:33:00,32.9,31.6,29.85,WNW,290,0.0,8.0,95,0.00,,,0.00,meteohub,2013-03-05 17:33:00,
2013-03-05 11:38:00,32.9,31.6,29.85,West,279,0.0,8.0,95,0.01,,,0.01,meteohub,2013-03-05 17:38:00,
2013-03-05 11:43:00,32.9,31.6,29.85,NW,325,0.0,8.0,95,0.01,,,0.01,meteohub,2013-03-05 17:43:00,
2013-03-05 11:48:00,32.7,31.5,29.85,WNW,294,5.0,9.0,95,0.01,,,0.01,meteohub,2013-03-05 17:48:00,
2013-03-05 11:53:00,32.7,31.5,29.85,North,349,6.0,10.0,95,0.01,,,0.01,meteohub,2013-03-05 17:53:00,
2013-03-05 11:58:00,32.5,31.3,29.85,NNW,344,6.0,10.0,95,0.01,,,0.01,meteohub,2013-03-05 17:58:00,
2013-03-05 12:03:00,32.5,31.3,29.85,WNW,299,5.0,10.0,95,0.01,,,0.01,meteohub,2013-03-05 18:03:00,
2013-03-05 12:08:00,32.7,31.5,29.85,WNW,294,0.0,10.0,95,0.01,,,0.01,meteohub,2013-03-05 18:08:00,
2013-03-05 12:13:00,32.7,31.5,29.85,NW,305,5.0,10.0,95,0.02,,,0.02,meteohub,2013-03-05 18:13:00,
2013-03-05 12:18:00,32.7,31.5,29.85,WNW,299,0.0,10.0,95,0.02,,,0.02,meteohub,2013-03-05 18:18:00,
2013-03-05 12:24:00,32.7,31.5,29.85,West,267,6.0,8.0,95,0.02,,,0.02,meteohub,2013-03-05 18:24:00,
2013-03-05 12:29:00,32.5,31.3,29.85,WNW,303,0.0,10.0,95,0.02,,,0.02,meteohub,2013-03-05 18:29:00,
2013-03-05 12:34:00,32.5,31.3,29.85,West,278,5.0,10.0,95,0.03,,,0.03,meteohub,2013-03-05 18:34:00,
2013-03-05 12:39:00,32.4,31.1,29.85,NW,321,7.0,10.0,95,0.02,,,0.03,meteohub,2013-03-05 18:39:00,
2013-03-05 12:44:00,32.4,30.7,29.85,NW,309,6.0,11.0,94,0.02,,,0.03,meteohub,2013-03-05 18:44:00,
2013-03-05 12:49:00,32.4,31.1,29.84,NW,305,5.0,16.0,95,0.02,,,0.03,meteohub,2013-03-05 18:49:00,
2013-03-05 12:54:00,32.2,30.6,29.84,NW,319,0.0,16.0,94,0.02,,,0.03,meteohub,2013-03-05 18:54:00,
2013-03-05 12:59:00,32.2,30.6,29.84,NW,317,9.0,16.0,94,0.03,,,0.04,meteohub,2013-03-05 18:59:00,
2013-03-05 13:04:00,32.0,30.6,29.84,NNW,330,9.0,11.0,94,0.03,,,0.04,meteohub,2013-03-05 19:04:00,
2013-03-05 13:09:00,31.6,30.2,29.84,WNW,295,8.0,11.0,94,0.03,,,0.04,meteohub,2013-03-05 19:09:00,
2013-03-05 13:14:00,31.6,30.2,29.84,WNW,294,9.0,16.0,94,0.02,,,0.04,meteohub,2013-03-05 19:14:00,
2013-03-05 13:19:00,31.6,30.2,29.84,WNW,286,7.0,16.0,94,0.03,,,0.05,meteohub,2013-03-05 19:19:00,
2013-03-05 13:24:00,31.5,30.0,29.84,WNW,285,7.0,14.0,94,0.03,,,0.05,meteohub,2013-03-05 19:24:00,
2013-03-05 13:29:00,31.5,30.0,29.84,NW,313,0.0,14.0,94,0.03,,,0.05,meteohub,2013-03-05 19:29:00,
2013-03-05 13:34:00,31.3,29.8,29.84,WNW,301,5.0,12.0,94,0.02,,,0.05,meteohub,2013-03-05 19:34:00,
2013-03-05 13:39:00,31.3,29.5,29.84,West,272,0.0,12.0,93,0.02,,,0.05,meteohub,2013-03-05 19:39:00,
2013-03-05 13:44:00,31.3,29.5,29.85,West,268,0.0,12.0,93,0.03,,,0.06,meteohub,2013-03-05 19:44:00,
2013-03-05 13:49:00,31.3,29.5,29.85,NW,314,0.0,11.0,93,0.03,,,0.06,meteohub,2013-03-05 19:49:00,
2013-03-05 13:55:00,31.3,29.5,29.85,NW,315,0.0,11.0,93,0.02,,,0.06,meteohub,2013-03-05 19:55:00,
2013-03-05 14:00:00,31.3,29.5,29.85,NW,316,0.0,0.0,93,0.02,,,0.06,meteohub,2013-03-05 20:00:00,
2013-03-05 14:05:00,31.1,29.1,29.86,WNW,283,0.0,0.0,92,0.02,,,0.06,meteohub,2013-03-05 20:05:00,
2013-03-05 14:10:00,31.1,29.3,29.86,WNW,303,0.0,0.0,93,0.02,,,0.06,meteohub,2013-03-05 20:10:00,
2013-03-05 14:15:00,31.1,29.3,29.86,WNW,284,0.0,0.0,93,0.03,,,0.07,meteohub,2013-03-05 20:15:00,
2013-03-05 14:20:00,30.9,29.1,29.86,WNW,284,0.0,0.0,93,0.02,,,0.07,meteohub,2013-03-05 20:20:00,
2013-03-05 14:25:00,30.9,29.1,29.86,NNW,330,0.0,0.0,93,0.02,,,0.07,meteohub,2013-03-05 20:25:00,
2013-03-05 14:30:00,30.9,29.1,29.86,WNW,292,0.0,0.0,93,0.02,,,0.07,meteohub,2013-03-05 20:30:00,
2013-03-05 14:35:00,30.7,28.9,29.86,NW,316,0.0,0.0,93,0.02,,,0.07,meteohub,2013-03-05 20:35:00,
2013-03-05 14:40:00,30.7,28.9,29.86,WNW,296,0.0,0.0,93,0.01,,,0.07,meteohub,2013-03-05 20:40:00,
2013-03-05 14:45:00,30.7,28.9,29.86,NW,311,0.0,0.0,93,0.01,,,0.07,meteohub,2013-03-05 20:45:00,
2013-03-05 14:50:00,30.6,28.8,29.87,West,277,0.0,0.0,93,0.02,,,0.08,meteohub,2013-03-05 20:50:00,
2013-03-05 14:55:00,30.6,28.8,29.87,West,272,0.0,0.0,93,0.02,,,0.08,meteohub,2013-03-05 20:55:00,
2013-03-05 15:00:00,30.6,28.8,29.87,West,275,0.0,0.0,93,0.02,,,0.08,meteohub,2013-03-05 21:00:00,
2013-03-05 15:05:00,30.6,28.8,29.87,WNW,301,0.0,0.0,93,0.02,,,0.08,meteohub,2013-03-05 21:05:00,
2013-03-05 15:10:00,30.6,28.8,29.87,West,275,0.0,0.0,93,0.01,,,0.08,meteohub,2013-03-05 21:10:00,
2013-03-05 15:15:00,30.6,28.8,29.87,NW,309,0.0,0.0,93,0.01,,,0.08,meteohub,2013-03-05 21:15:00,
2013-03-05 15:20:00,30.6,28.8,29.87,NW,309,0.0,0.0,93,0.01,,,0.08,meteohub,2013-03-05 21:20:00,
2013-03-05 15:25:00,30.4,28.6,29.87,NW,318,0.0,0.0,93,0.01,,,0.08,meteohub,2013-03-05 21:25:00,
2013-03-05 15:30:00,30.6,28.8,29.88,WNW,300,0.0,0.0,93,0.01,,,0.08,meteohub,2013-03-05 21:30:00,
2013-03-05 15:35:00,30.6,28.8,29.87,WNW,302,0.0,0.0,93,0.01,,,0.08,meteohub,2013-03-05 21:35:00,
2013-03-05 15:40:00,30.6,28.8,29.88,WNW,299,0.0,0.0,93,0.01,,,0.08,meteohub,2013-03-05 21:40:00,
2013-03-05 15:46:00,30.4,28.6,29.88,WNW,292,0.0,0.0,93,0.02,,,0.09,meteohub,2013-03-05 21:46:00,
2013-03-05 15:51:00,30.4,28.6,29.88,WNW,293,0.0,0.0,93,0.01,,,0.09,meteohub,2013-03-05 21:51:00,
2013-03-05 15:56:00,30.4,28.6,29.88,West,276,0.0,0.0,93,0.01,,,0.09,meteohub,2013-03-05 21:56:00,
2013-03-05 16:01:00,30.4,28.6,29.88,NW,309,0.0,0.0,93,0.01,,,0.09,meteohub,2013-03-05 22:01:00,
2013-03-05 16:06:00,30.4,28.6,29.88,West,269,0.0,0.0,93,0.01,,,0.09,meteohub,2013-03-05 22:06:00,
2013-03-05 16:11:00,30.4,28.6,29.88,WNW,288,0.0,0.0,93,0.01,,,0.09,meteohub,2013-03-05 22:11:00,
2013-03-05 16:16:00,30.4,28.6,29.88,NW,304,0.0,0.0,93,0.01,,,0.09,meteohub,2013-03-05 22:16:00,
2013-03-05 16:21:00,30.4,28.4,29.88,NW,311,0.0,0.0,92,0.01,,,0.09,meteohub,2013-03-05 22:21:00,
2013-03-05 16:26:00,30.4,28.4,29.88,NNW,334,0.0,0.0,92,0.01,,,0.09,meteohub,2013-03-05 22:26:00,
2013-03-05 16:31:00,30.4,28.4,29.88,WNW,295,0.0,0.0,92,0.01,,,0.09,meteohub,2013-03-05 22:31:00,
2013-03-05 16:36:00,30.2,28.2,29.88,NW,308,0.0,0.0,92,0.01,,,0.09,meteohub,2013-03-05 22:36:00,
2013-03-05 16:41:00,30.2,28.2,29.88,NW,322,0.0,0.0,92,0.01,,,0.09,meteohub,2013-03-05 22:41:00,
2013-03-05 16:46:00,30.0,28.0,29.88,NW,311,0.0,0.0,92,0.00,,,0.09,meteohub,2013-03-05 22:46:00,
2013-03-05 16:51:00,30.0,28.0,29.88,WNW,291,0.0,0.0,92,0.00,,,0.09,meteohub,2013-03-05 22:51:00,
2013-03-05 16:56:00,30.0,27.7,29.89,NNW,329,0.0,0.0,91,0.00,,,0.09,meteohub,2013-03-05 22:56:00,
2013-03-05 17:01:00,30.0,28.0,29.89,West,279,0.0,0.0,92,0.00,,,0.09,meteohub,2013-03-05 23:01:00,
2013-03-05 17:06:00,30.0,27.7,29.89,WNW,294,0.0,0.0,91,0.00,,,0.09,meteohub,2013-03-05 23:06:00,
2013-03-05 17:11:00,30.0,27.7,29.89,WNW,301,0.0,0.0,91,0.00,,,0.09,meteohub,2013-03-05 23:11:00,
2013-03-05 17:16:00,30.0,28.0,29.90,NW,311,0.0,0.0,92,0.00,,,0.09,meteohub,2013-03-05 23:16:00,
2013-03-05 17:21:00,29.8,27.9,29.89,NW,311,0.0,0.0,92,0.00,,,0.09,meteohub,2013-03-05 23:21:00,
2013-03-05 17:27:00,29.8,27.9,29.90,WNW,282,0.0,0.0,92,0.00,,,0.09,meteohub,2013-03-05 23:27:00,
2013-03-05 17:32:00,29.8,27.9,29.90,WNW,301,0.0,0.0,92,0.00,,,0.09,meteohub,2013-03-05 23:32:00,
2013-03-05 17:37:00,29.8,27.9,29.90,NW,317,0.0,0.0,92,0.00,,,0.09,meteohub,2013-03-05 23:37:00,
2013-03-05 17:42:00,29.8,27.9,29.90,WNW,299,0.0,0.0,92,0.00,,,0.09,meteohub,2013-03-05 23:42:00,
2013-03-05 17:47:00,29.8,27.9,29.90,NW,318,0.0,0.0,92,0.00,,,0.09,meteohub,2013-03-05 23:47:00,
2013-03-05 17:52:00,29.8,27.9,29.90,NW,326,0.0,0.0,92,0.00,,,0.09,meteohub,2013-03-05 23:52:00,
2013-03-05 17:57:00,29.8,27.9,29.90,NNW,346,0.0,0.0,92,0.00,,,0.09,meteohub,2013-03-05 23:57:00,
2013-03-05 18:02:00,29.8,27.9,29.91,WNW,282,0.0,0.0,92,0.00,,,0.09,meteohub,2013-03-06 00:02:00,
2013-03-05 18:07:00,29.8,27.9,29.91,NW,313,0.0,0.0,92,0.00,,,0.09,meteohub,2013-03-06 00:07:00,
2013-03-05 18:12:00,29.8,28.0,29.91,NNW,335,0.0,0.0,93,0.00,,,0.09,meteohub,2013-03-06 00:12:00,
2013-03-05 18:17:00,29.8,28.0,29.91,WNW,299,0.0,0.0,93,0.00,,,0.09,meteohub,2013-03-06 00:17:00,
2013-03-05 18:22:00,29.8,28.0,29.91,NW,321,0.0,0.0,93,0.00,,,0.09,meteohub,2013-03-06 00:22:00,
2013-03-05 18:27:00,29.8,28.0,29.91,NW,305,0.0,0.0,93,0.00,,,0.09,meteohub,2013-03-06 00:27:00,
2013-03-05 18:32:00,29.8,28.0,29.91,NW,305,0.0,0.0,93,0.00,,,0.09,meteohub,2013-03-06 00:32:00,
2013-03-05 18:37:00,29.8,28.0,29.91,NW,304,0.0,0.0,93,0.00,,,0.09,meteohub,2013-03-06 00:37:00,
2013-03-05 18:42:00,29.8,28.0,29.91,NNE,22,0.0,0.0,93,0.00,,,0.09,meteohub,2013-03-06 00:42:00,
2013-03-05 18:47:00,29.8,28.0,29.92,WNW,299,0.0,0.0,93,0.00,,,0.09,meteohub,2013-03-06 00:47:00,
2013-03-05 18:52:00,29.8,28.0,29.92,NNW,340,0.0,0.0,93,0.00,,,0.09,meteohub,2013-03-06 00:52:00,
2013-03-05 18:57:00,29.8,28.0,29.92,NNW,335,0.0,0.0,93,0.00,,,0.09,meteohub,2013-03-06 00:57:00,
2013-03-05 19:03:00,29.8,28.0,29.92,West,278,0.0,0.0,93,0.00,,,0.09,meteohub,2013-03-06 01:03:00,
2013-03-05 19:08:00,30.0,28.2,29.93,WNW,290,0.0,0.0,93,0.00,,,0.09,meteohub,2013-03-06 01:08:00,
2013-03-05 19:13:00,30.0,28.2,29.93,NW,310,0.0,0.0,93,0.00,,,0.09,meteohub,2013-03-06 01:13:00,
2013-03-05 19:18:00,30.0,28.2,29.93,NNW,338,0.0,0.0,93,0.00,,,0.09,meteohub,2013-03-06 01:18:00,
2013-03-05 19:23:00,30.0,28.2,29.93,NW,308,0.0,0.0,93,0.00,,,0.09,meteohub,2013-03-06 01:23:00,
2013-03-05 19:28:00,30.0,28.2,29.93,NNW,348,0.0,0.0,93,0.00,,,0.09,meteohub,2013-03-06 01:28:00,
2013-03-05 19:33:00,30.0,28.2,29.94,WNW,293,0.0,0.0,93,0.00,,,0.09,meteohub,2013-03-06 01:33:00,
2013-03-05 19:38:00,30.2,28.4,29.94,NW,317,0.0,0.0,93,0.00,,,0.09,meteohub,2013-03-06 01:38:00,
2013-03-05 19:43:00,30.2,28.4,29.94,NW,305,0.0,0.0,93,0.00,,,0.09,meteohub,2013-03-06 01:43:00,
2013-03-05 19:48:00,30.2,28.4,29.94,East,82,0.0,0.0,93,0.00,,,0.09,meteohub,2013-03-06 01:48:00,
2013-03-05 19:53:00,30.2,28.4,29.94,NNE,24,0.0,0.0,93,0.00,,,0.09,meteohub,2013-03-06 01:53:00,
2013-03-05 19:58:00,30.2,28.8,29.95,NE,45,0.0,0.0,94,0.00,,,0.09,meteohub,2013-03-06 01:58:00,
2013-03-05 20:03:00,30.2,28.8,29.96,WNW,299,0.0,0.0,94,0.00,,,0.09,meteohub,2013-03-06 02:03:00,
2013-03-05 20:08:00,30.0,28.6,29.96,NNE,13,0.0,0.0,94,0.00,,,0.09,meteohub,2013-03-06 02:08:00,
2013-03-05 20:13:00,30.0,28.6,29.96,North,349,0.0,0.0,94,0.00,,,0.09,meteohub,2013-03-06 02:13:00,
2013-03-05 20:18:00,30.0,28.6,29.96,NW,326,0.0,0.0,94,0.00,,,0.09,meteohub,2013-03-06 02:18:00,
2013-03-05 20:23:00,30.0,28.6,29.97,NNE,22,0.0,0.0,94,0.00,,,0.09,meteohub,2013-03-06 02:23:00,
2013-03-05 20:28:00,30.0,28.6,29.98,NNW,348,0.0,0.0,94,0.00,,,0.09,meteohub,2013-03-06 02:28:00,
2013-03-05 20:33:00,30.0,28.6,29.98,NE,49,0.0,0.0,94,0.00,,,0.09,meteohub,2013-03-06 02:33:00,
2013-03-05 20:39:00,29.8,28.4,29.98,NE,49,0.0,0.0,94,0.00,,,0.09,meteohub,2013-03-06 02:39:00,
2013-03-05 20:44:00,29.8,28.4,29.98,North,11,0.0,0.0,94,0.00,,,0.09,meteohub,2013-03-06 02:44:00,
2013-03-05 20:49:00,29.5,27.7,29.99,East,91,0.0,0.0,93,0.00,,,0.09,meteohub,2013-03-06 02:49:00,
2013-03-05 20:54:00,29.3,27.5,29.99,NE,35,0.0,0.0,93,0.00,,,0.09,meteohub,2013-03-06 02:54:00,
2013-03-05 20:59:00,29.1,27.3,29.99,NNE,20,0.0,0.0,93,0.00,,,0.09,meteohub,2013-03-06 02:59:00,
2013-03-05 21:04:00,29.1,27.3,29.99,NE,45,0.0,0.0,93,0.00,,,0.09,meteohub,2013-03-06 03:04:00,
2013-03-05 21:09:00,29.1,27.3,30.00,NE,35,0.0,0.0,93,0.00,,,0.09,meteohub,2013-03-06 03:09:00,
2013-03-05 21:14:00,28.9,27.1,30.00,North,9,0.0,0.0,93,0.00,,,0.09,meteohub,2013-03-06 03:14:00,
2013-03-05 21:19:00,29.1,27.3,30.00,NE,35,0.0,0.0,93,0.00,,,0.09,meteohub,2013-03-06 03:19:00,
2013-03-05 21:24:00,28.9,27.1,30.01,North,358,0.0,0.0,93,0.00,,,0.09,meteohub,2013-03-06 03:24:00,
2013-03-05 21:29:00,28.9,27.1,30.01,NNE,23,0.0,0.0,93,0.00,,,0.09,meteohub,2013-03-06 03:29:00,
2013-03-05 21:34:00,28.9,27.1,30.01,NNW,328,0.0,0.0,93,0.00,,,0.09,meteohub,2013-03-06 03:34:00,
2013-03-05 21:39:00,28.9,27.1,30.02,NE,52,0.0,0.0,93,0.00,,,0.09,meteohub,2013-03-06 03:39:00,
2013-03-05 21:44:00,28.8,27.0,30.02,NNW,338,0.0,0.0,93,0.00,,,0.09,meteohub,2013-03-06 03:44:00,
2013-03-05 21:49:00,28.8,27.0,30.02,ENE,72,0.0,0.0,93,0.00,,,0.09,meteohub,2013-03-06 03:49:00,
2013-03-05 21:54:00,28.6,26.8,30.02,WNW,289,0.0,0.0,93,0.00,,,0.09,meteohub,2013-03-06 03:54:00,
2013-03-05 21:59:00,28.6,26.8,30.02,North,357,0.0,0.0,93,0.00,,,0.09,meteohub,2013-03-06 03:59:00,
2013-03-05 22:04:00,28.6,26.8,30.03,NW,317,0.0,0.0,93,0.00,,,0.09,meteohub,2013-03-06 04:04:00,
2013-03-05 22:10:00,28.4,26.6,30.03,West,280,0.0,0.0,93,0.00,,,0.09,meteohub,2013-03-06 04:10:00,
2013-03-05 22:15:00,28.2,26.4,30.03,NW,309,0.0,0.0,93,0.00,,,0.09,meteohub,2013-03-06 04:15:00,
2013-03-05 22:20:00,28.2,26.4,30.04,WNW,299,0.0,0.0,93,0.00,,,0.09,meteohub,2013-03-06 04:20:00,
2013-03-05 22:25:00,28.2,26.4,30.04,NNE,16,0.0,0.0,93,0.00,,,0.09,meteohub,2013-03-06 04:25:00,
2013-03-05 22:30:00,28.0,26.2,30.04,WNW,302,0.0,0.0,93,0.00,,,0.09,meteohub,2013-03-06 04:30:00,
2013-03-05 22:35:00,28.0,26.2,30.04,WNW,288,0.0,0.0,93,0.00,,,0.09,meteohub,2013-03-06 04:35:00,
2013-03-05 22:40:00,28.0,26.2,30.04,NE,35,0.0,0.0,93,0.00,,,0.09,meteohub,2013-03-06 04:40:00,
2013-03-05 22:45:00,28.0,26.2,30.04,NNW,340,0.0,0.0,93,0.00,,,0.09,meteohub,2013-03-06 04:45:00,
2013-03-05 22:50:00,28.0,26.2,30.04,NNW,333,0.0,0.0,93,0.00,,,0.09,meteohub,2013-03-06 04:50:00,
2013-03-05 22:55:00,28.0,26.2,30.04,NW,316,0.0,0.0,93,0.00,,,0.09,meteohub,2013-03-06 04:55:00,
2013-03-05 23:00:00,28.0,26.2,30.04,NE,45,0.0,0.0,93,0.00,,,0.09,meteohub,2013-03-06 05:00:00,
2013-03-05 23:01:00,28.0,26.2,30.05,NW,319,0.0,0.0,93,0.00,,,0.09,meteohub,2013-03-06 05:01:00,
2013-03-05 23:02:00,28.0,26.2,30.04,NW,319,0.0,0.0,93,0.00,,,0.09,meteohub,2013-03-06 05:02:00,
2013-03-05 23:06:00,27.9,26.1,30.05,North,7,0.0,0.0,93,0.00,,,0.09,meteohub,2013-03-06 05:06:00,
2013-03-05 23:11:00,27.9,26.1,30.05,NNE,18,0.0,0.0,93,0.00,,,0.09,meteohub,2013-03-06 05:11:00,
2013-03-05 23:16:00,27.9,26.1,30.05,North,352,0.0,0.0,93,0.00,,,0.09,meteohub,2013-03-06 05:16:00,
2013-03-05 23:21:00,27.9,25.9,30.05,West,277,0.0,0.0,92,0.00,,,0.09,meteohub,2013-03-06 05:21:00,
2013-03-05 23:26:00,27.9,25.9,30.05,NE,45,0.0,0.0,92,0.00,,,0.09,meteohub,2013-03-06 05:26:00,
2013-03-05 23:31:00,27.9,25.9,30.05,NNW,344,0.0,0.0,92,0.00,,,0.09,meteohub,2013-03-06 05:31:00,
2013-03-05 23:37:00,27.9,25.9,30.06,NW,326,0.0,0.0,92,0.00,,,0.09,meteohub,2013-03-06 05:37:00,
2013-03-05 23:42:00,27.9,25.9,30.06,NNW,348,0.0,0.0,92,0.00,,,0.09,meteohub,2013-03-06 05:42:00,
2013-03-05 23:47:00,27.9,25.9,30.06,North,355,0.0,0.0,92,0.00,,,0.09,meteohub,2013-03-06 05:47:00,
2013-03-05 23:52:00,27.9,25.9,30.06,NNE,22,0.0,0.0,92,0.00,,,0.09,meteohub,2013-03-06 05:52:00,
2013-03-05 23:57:00,27.9,25.9,30.07,NE,35,0.0,0.0,92,0.00,,,0.09,meteohub,2013-03-06 05:57:00,